Flag for China Weather past 2 weeks in Nanning, Guangxi, China

70 °F

Light rain. Mostly cloudy.

Feels Like: 70 °F
Forecast: 70 / 75 °F
Wind: 13 mph from Northwest

Location: Nanning Airport

Current Time: Oct 5, 2015 at 4:43:05 AM

Latest Report: Oct 5, 2015 at 4:00 AM

Visibility: 4 mi

Pressure: 29.74 "Hg

Humidity: 94%

Dew point: 68 °F

Location of NanningLocation

Historic Weather in Nanning — Graph


Nanning temperature yesterday

Maximum temperature yesterday: 84 °F (at 1:00 PM)
Minimum temperature yesterday: 72 °F (at 9:00 PM)
Average temperature yesterday: 79 °F

Past Weeks' High & Low Weather Summary

High95 °F (Sep 25, 3:00 PM)100% (Sep 20, 6:00 AM)29.98 "Hg (Sep 20, 6:00 AM)
Low70 °F (Oct 5, 2:00 AM)49% (Oct 2, 3:00 PM)29.59 "Hg (Sep 25, 3:00 PM)
Average81 °F81%29.81 "Hg
* Reported Sep 20 3:00 AM — Oct 5 3:00 AM, Nanning, Weather by CustomWeather, © 2015

Note: Actual official high and low records may vary slightly from our data, if they occured in-between our weather recording intervals... More about our weather records


Nanning weather history for previous 24 hours

Time TempWeatherWind HumidityBarometerVisibility
3:00 AM
Mon, Oct 5
70 °FLight rain. Mostly cloudy.17 mph94%29.71 "Hg4 mi
2:00 AM70 °FLight rain. Overcast.20 mph94%29.71 "Hg4 mi
1:00 AM72 °FLight rain. Overcast.22 mph88%29.71 "Hg4 mi
12:00 AM72 °FSprinkles. Partly cloudy.26 mph88%29.68 "Hg4 mi
11:00 PM
Sun, Oct 4
72 °FSprinkles. Partly cloudy.26 mph94%29.71 "Hg5 mi
10:00 PM72 °FSprinkles. Partly cloudy.24 mph94%29.71 "Hg4 mi
9:00 PM72 °FRain showers. Passing clouds.20 mph94%29.71 "Hg3 mi
8:00 PM73 °FSprinkles. Passing clouds.22 mph89%29.71 "Hg5 mi
7:00 PM73 °FSprinkles. Passing clouds.22 mph89%29.71 "Hg4 mi
6:00 PM77 °FSprinkles. Partly sunny.15 mph83%29.74 "HgN/A
5:00 PM81 °FScattered clouds.20 mph70%29.74 "HgN/A
4:00 PM81 °FScattered clouds.15 mph70%29.74 "HgN/A
3:00 PM82 °FLight rain. Scattered clouds.13 mph66%29.77 "HgN/A
2:00 PM82 °FPassing clouds.15 mph66%29.80 "HgN/A
1:00 PM84 °FPassing clouds.13 mph62%29.83 "HgN/A
12:00 PM82 °FSunny.15 mph66%29.86 "Hg10 mi
11:00 AM81 °FPassing clouds.13 mph70%29.89 "HgN/A
10:00 AM81 °FSunny.15 mph70%29.92 "Hg10 mi
9:00 AM79 °FSunny.10 mph74%29.92 "Hg10 mi
8:00 AM79 °FSunny.10 mph74%29.89 "Hg10 mi
7:00 AM79 °FSunny.8 mph74%29.89 "Hg10 mi
5:00 AM81 °FClear.8 mph66%29.86 "Hg10 mi
4:00 AM79 °FClear.8 mph74%29.89 "Hg10 mi
Weather by CustomWeather, © 2015

See weather overviewHow to use our weather pages